Voltar ao catálogo

STARLINK-32616

AtivoComunicaçõesVLEO
NORAD 61920·PAYLOAD·🇺🇸 United States

Lançado Nov 11, 2024 de Cape Canaveral Space Force Station

Loading…

Próximas Passagens (próximas 24 horas)

TLE

AtualizadoSource: CelesTrak SupGP

Época: Sep 15, 2026, 03:34 UTC

1 61920C 24207J   26258.14909722 -.00000104  00000+0 -37569-5 0  2589
2 61920  43.0000 291.8305 0001346 264.9867 208.3394 15.27583809    19

Acompanhe STARLINK-32616 em tempo real com AllMySat

Download on the App Store